Stations météo

réclame
Mon MeteoGroup
Soderstjerna, Suède (2667): Température de l'air & dewpoint: 10.08.2018 03:00:00 - 16.08.2018 03:00:00 (CEST)Soderstjerna, Suède (2667): Vitesse du vent & gusts: 10.08.2018 03:00:00 - 16.08.2018 03:00:00 (CEST)Soderstjerna, Suède (2667): Direction du vent: 10.08.2018 03:00:00 - 16.08.2018 03:00:00 (CEST)Soderstjerna, Suède (2667): reduced air pressure: 10.08.2018 03:00:00 - 16.08.2018 03:00:00 (CEST)Soderstjerna, Suède (2667): visibility: 10.08.2018 03:00:00 - 16.08.2018 03:00:00 (CEST)Soderstjerna, Suède (2667): Quantités de précipitations: 10.08.2018 03:00:00 - 16.08.2018 03:00:00 (CEST)
Date & Time tt [°C] td [°C] ff [km/h] ff [knt] fx [km/h] fx [knt] dd ppp [hPa] vv [km] rr [mm]
16.08.2018 03:00:00 17,9 16,1 0 0 4 2 N 1017,5 45 0,0
16.08.2018 02:00:00 17,8 15,4 0 0 7 4 N 1017,3 40 0,0
16.08.2018 01:00:00 18,4 16,0 4 2 11 6 WNW 1017,3 50 0,0
16.08.2018 00:00:00 19,0 15,5 4 2 14 8 NW 1017,0 40 0,0
15.08.2018 23:00:00 19,2 16,1 11 6 14 8 WSW 1016,9 45 0,0
15.08.2018 22:00:00 20,3 15,5 7 4 14 8 WNW 1016,6 45 0,0
15.08.2018 21:00:00 20,7 15,5 11 6 25 14 W 1016,2 50 0,0
15.08.2018 20:00:00 20,6 16,4 22 12 29 16 W 1015,5 45 0,0
15.08.2018 19:00:00 21,7 15,1 25 14 29 16 WSW 1014,9 45 0,0
15.08.2018 18:00:00 21,5 15,6 18 10 32 18 WSW 1014,7 50 0,0
15.08.2018 17:00:00 21,6 15,4 25 14 40 21 WSW 1014,5 45 0,0
15.08.2018 16:00:00 22,1 14,5 32 18 43 23 WSW 1014,1 40 0,0
15.08.2018 15:00:00 22,2 14,6 25 14 36 19 WSW 1013,7 45 0,0
15.08.2018 14:00:00 21,6 15,9 25 14 32 18 WSW 1013,7 45 0,0
15.08.2018 13:00:00 20,5 15,9 25 14 32 18 WSW 1013,2 40 0,0
15.08.2018 12:00:00 20,2 16,2 18 10 22 12 WSW 1013,0 40 0,0
15.08.2018 11:00:00 20,0 15,8 18 10 22 12 W 1012,8 45 0,0
15.08.2018 10:00:00 18,8 15,3 11 6 18 10 WNW 1012,4 45 0,0
15.08.2018 09:00:00 19,0 15,5 11 6 22 12 WNW 1011,6 45 0,0
15.08.2018 08:00:00 17,7 15,5 14 8 22 12 WNW 1011,0 45 0,0
15.08.2018 07:00:00 16,9 15,2 14 8 18 10 W 1010,7 45 0,0
15.08.2018 06:00:00 16,7 14,7 7 4 22 12 NW 1010,0 45 0,0
15.08.2018 05:00:00 16,6 15,0 11 6 22 12 NNW 1009,6 45 0,0
15.08.2018 04:00:00 16,5 15,2 11 6 22 12 NW 1009,0 45 0,0
15.08.2018 03:00:00 17,0 16,0 11 6 22 12 NW 1008,2 40 0,0
15.08.2018 02:00:00 17,3 16,2 4 2 18 10 NW 1007,8 45 0,0
15.08.2018 01:00:00 17,9 16,6 11 6 25 14 WNW 1007,4 45 0,0
15.08.2018 00:00:00 18,6 17,3 22 12 25 14 W 1007,1 40 0,0
14.08.2018 23:00:00 19,0 17,7 18 10 25 14 W 1006,8 45 0,0
14.08.2018 22:00:00 19,6 17,6 22 12 25 14 W 1006,5 45 0,0
14.08.2018 21:00:00 19,7 17,5 22 12 25 14 W 1006,3 45 0,0
14.08.2018 20:00:00 20,0 17,6 18 10 25 14 WSW 1005,8 23 0,0
14.08.2018 19:00:00 20,3 17,9 18 10 29 16 WSW 1005,7 16 0,0
14.08.2018 18:00:00 21,2 17,6 22 12 32 18 WSW 1005,8 24 0,0
14.08.2018 17:00:00 21,1 18,3 18 10 36 19 WSW 1005,8 18 0,0
14.08.2018 16:00:00 20,6 17,6 29 16 43 23 WSW 1005,7 13 0,0
14.08.2018 15:00:00 21,7 17,7 32 18 43 23 WSW 1005,7 18 0,0
14.08.2018 14:00:00 21,7 17,7 32 18 36 19 SW 1005,5 30 0,0
14.08.2018 13:00:00 21,5 18,5 22 12 29 16 WSW 1005,4 19 0,0
14.08.2018 12:00:00 21,6 19,0 14 8 18 10 S 1005,2 30 0,0
14.08.2018 11:00:00 21,3 18,9 7 4 25 14 E 1005,1 30 0,0
14.08.2018 10:00:00 19,6 17,7 14 8 32 18 E 1005,5 25 0,0
14.08.2018 09:00:00 19,1 17,6 18 10 29 16 E 1005,7 23 0,0
14.08.2018 08:00:00 18,8 17,6 18 10 36 19 E 1005,8 25 0,0
14.08.2018 07:00:00 18,6 17,4 22 12 32 18 E 1006,2 20 0,0
14.08.2018 06:00:00 18,4 17,2 22 12 32 18 ENE 1006,3 28 0,0
14.08.2018 05:00:00 18,7 17,9 18 10 29 16 E 1006,4 18 0,0
14.08.2018 04:00:00 18,2 17,2 22 12 25 14 ENE 1007,3 30 0,0
14.08.2018 03:00:00 18,0 17,0 18 10 25 14 ENE 1007,8 40 0,0
14.08.2018 02:00:00 18,1 17,1 18 10 25 14 ENE 1008,1 30 0,1
14.08.2018 01:00:00 18,0 16,9 14 8 18 10 ENE 1009,0 28 0,1
14.08.2018 00:00:00 18,0 16,5 14 8 22 12 E 1009,4 45 0,0
13.08.2018 23:00:00 17,7 16,4 11 6 22 12 E 1009,0 45 0,0
13.08.2018 22:00:00 17,4 16,1 14 8 25 14 E 1009,2 50 0,0
13.08.2018 21:00:00 17,2 15,7 18 10 25 14 E 1009,5 45 0,0
13.08.2018 20:00:00 17,0 15,2 14 8 25 14 E 1009,7 45 0,0
13.08.2018 19:00:00 17,2 15,4 11 6 18 10 E 1009,8 50 0,0
13.08.2018 18:00:00 17,0 15,2 14 8 22 12 ENE 1010,2 45 0,0
13.08.2018 17:00:00 17,0 15,2 11 6 18 10 ESE 1010,7 35 0,0
13.08.2018 16:00:00 16,8 15,0 11 6 18 10 E 1010,7 30 0,0
13.08.2018 15:00:00 16,2 14,4 11 6 18 10 E 1010,7 22 0,0
13.08.2018 14:00:00 16,0 14,0 11 6 22 12 E 1010,9 25 0,1
13.08.2018 13:00:00 16,2 13,7 11 6 18 10 E 1011,0 30 0,1
13.08.2018 12:00:00 15,8 12,7 11 6 18 10 E 1011,1 25 0,1
13.08.2018 11:00:00 15,8 12,5 11 6 14 8 E 1011,0 35 0,0
13.08.2018 10:00:00 15,2 12,5 7 4 14 8 E 1010,9 45 0,0
13.08.2018 09:00:00 14,8 12,7 11 6 14 8 ENE 1010,7 45 0,0
13.08.2018 08:00:00 14,6 12,5 7 4 11 6 ENE 1010,8 40 0,2
13.08.2018 07:00:00 14,1 12,7 4 2 7 4 NNE 1010,8 35 0,2
13.08.2018 06:00:00 14,1 12,7 4 2 7 4 N 1011,1 35 0,1
13.08.2018 05:00:00 14,3 12,2 7 4 11 6 W 1011,2 27 0,1
13.08.2018 04:00:00 14,1 12,3 4 2 18 10 WNW 1011,3 40 0,0
13.08.2018 03:00:00 14,5 12,4 11 6 22 12 W 1011,6 35 0,0
13.08.2018 02:00:00 14,3 12,0 14 8 22 12 W 1011,9 35 0,0
13.08.2018 01:00:00 14,4 11,5 14 8 22 12 W 1012,0 45 0,0
13.08.2018 00:00:00 14,7 11,8 14 8 29 16 W 1012,0 45 0,0
12.08.2018 23:00:00 15,1 12,2 25 14 32 18 W 1012,1 45 0,1
12.08.2018 22:00:00 15,7 13,7 25 14 32 18 W 1012,5 30 0,1
12.08.2018 21:00:00 16,1 12,5 22 12 32 18 W 1012,7 30 0,1
12.08.2018 20:00:00 17,3 11,1 22 12 40 21 W - 45 0,0
12.08.2018 19:00:00 18,3 10,4 29 16 43 23 W 1012,2 50 0,0
12.08.2018 18:00:00 18,8 11,1 32 18 47 25 W 1012,1 45 0,0
12.08.2018 17:00:00 19,2 11,2 40 21 47 25 W 1012,0 45 0,0
12.08.2018 16:00:00 19,7 11,7 29 16 47 25 WSW 1012,1 40 0,0
12.08.2018 15:00:00 18,5 11,8 40 21 58 31 WSW 1012,3 40 0,0
12.08.2018 14:00:00 18,5 11,6 47 25 58 31 WSW 1012,1 40 0,0
12.08.2018 13:00:00 18,6 10,7 43 23 58 31 W 1012,2 45 0,0
12.08.2018 12:00:00 18,2 11,0 43 23 58 31 W 1012,1 40 0,0
12.08.2018 11:00:00 17,7 11,9 47 25 61 33 W 1012,0 35 0,0
12.08.2018 10:00:00 17,4 12,3 40 21 50 27 W 1012,1 35 0,0
12.08.2018 09:00:00 16,7 12,6 40 21 50 27 W 1011,9 40 0,0
12.08.2018 08:00:00 16,3 13,2 36 19 50 27 W 1011,5 30 0,0
12.08.2018 07:00:00 16,1 12,8 40 21 58 31 W 1011,0 29 0,0
12.08.2018 06:00:00 15,9 13,4 40 21 54 29 W 1010,6 28 0,0
12.08.2018 05:00:00 15,6 13,3 40 21 50 27 W 1010,3 30 0,0
12.08.2018 04:00:00 14,5 12,2 32 18 50 27 W 1010,1 45 0,1
12.08.2018 03:00:00 14,5 12,7 36 19 54 29 W 1009,8 23 0,6
12.08.2018 02:00:00 15,3 13,0 43 23 54 29 W 1009,7 45 0,0
12.08.2018 01:00:00 16,1 11,7 29 16 36 19 W 1009,9 45 0,0
12.08.2018 00:00:00 16,6 11,7 25 14 36 19 W 1010,2 45 0,0
11.08.2018 23:00:00 16,9 12,2 22 12 32 18 W 1010,0 45 0,0
11.08.2018 22:00:00 17,1 12,2 14 8 22 12 W 1010,1 45 0,0
11.08.2018 21:00:00 15,6 12,4 14 8 40 21 SW 1010,9 50 0,6
11.08.2018 20:00:00 18,1 12,1 29 16 50 27 SW 1011,4 45 0,0
11.08.2018 19:00:00 18,9 13,1 40 21 50 27 SW 1012,1 45 0,0
11.08.2018 18:00:00 19,4 13,3 32 18 50 27 WSW 1012,3 35 0,0
11.08.2018 17:00:00 19,6 13,3 36 19 50 27 SW 1013,1 40 0,0
11.08.2018 16:00:00 19,8 14,6 40 21 54 29 SW 1012,9 35 0,0
11.08.2018 15:00:00 17,7 15,9 11 6 47 25 SW 1013,2 13 3,0
11.08.2018 14:00:00 22,0 15,4 32 18 40 21 SSE 1014,1 45 0,0
11.08.2018 13:00:00 21,6 14,0 29 16 36 19 SSE 1015,3 40 0,0
11.08.2018 12:00:00 21,5 15,1 25 14 40 21 S 1016,2 40 0,0
11.08.2018 11:00:00 21,1 14,5 32 18 43 23 S 1016,8 40 0,0
11.08.2018 10:00:00 21,1 16,7 29 16 36 19 S 1017,3 45 0,0
11.08.2018 09:00:00 20,8 16,6 29 16 32 18 S 1017,7 30 0,0
11.08.2018 08:00:00 20,3 16,1 18 10 29 16 S 1018,1 40 0,0
11.08.2018 07:00:00 19,7 14,3 11 6 22 12 SSW 1018,6 40 0,0
11.08.2018 06:00:00 19,4 13,3 14 8 32 18 WSW 1018,8 50 0,0
11.08.2018 05:00:00 19,8 12,3 25 14 32 18 WSW 1018,9 50 0,0
11.08.2018 04:00:00 19,5 13,4 22 12 32 18 WSW 1019,0 45 0,0
11.08.2018 03:00:00 19,4 13,6 22 12 36 19 WSW 1019,2 45 0,0
11.08.2018 02:00:00 19,5 12,5 29 16 40 21 WSW 1019,6 45 0,0
11.08.2018 01:00:00 19,7 13,4 25 14 36 19 WSW 1019,8 45 0,0
11.08.2018 00:00:00 19,8 13,0 29 16 40 21 W 1019,7 45 0,0
10.08.2018 23:00:00 20,3 13,0 32 18 43 23 WSW 1019,3 45 0,0
10.08.2018 22:00:00 20,2 11,1 11 6 25 14 W 1019,1 45 0,0
10.08.2018 21:00:00 21,0 10,2 18 10 40 21 W 1018,5 45 0,0
10.08.2018 20:00:00 21,4 12,3 32 18 43 23 W 1017,6 45 0,0
10.08.2018 19:00:00 21,9 12,7 36 19 50 27 W 1017,0 40 0,0
10.08.2018 18:00:00 22,2 13,0 40 21 50 27 W 1016,8 40 0,0
10.08.2018 17:00:00 22,1 13,7 36 19 54 29 WSW 1016,2 35 0,0
10.08.2018 16:00:00 22,6 14,9 43 23 54 29 WSW 1015,5 35 0,0
10.08.2018 15:00:00 22,5 15,8 36 19 50 27 WSW 1015,2 35 0,0
10.08.2018 14:00:00 22,3 16,8 32 18 50 27 WSW 1014,7 35 0,0
10.08.2018 13:00:00 22,3 16,8 36 19 50 27 WSW 1014,0 40 0,0
10.08.2018 12:00:00 22,6 16,6 40 21 50 27 WSW 1013,4 35 0,0
10.08.2018 11:00:00 22,1 16,4 40 21 58 31 WSW 1012,5 40 0,0
10.08.2018 10:00:00 21,9 16,8 43 23 58 31 WSW 1011,6 35 0,0
10.08.2018 09:00:00 22,4 18,4 32 18 54 29 WSW 1010,9 30 0,0
10.08.2018 08:00:00 22,6 19,9 29 16 43 23 SW 1010,1 30 0,0
10.08.2018 07:00:00 22,0 21,2 22 12 29 16 SSW 1009,8 12 0,0
10.08.2018 06:00:00 21,8 20,6 25 14 29 16 SSW 1008,9 17 0,0
10.08.2018 05:00:00 22,2 20,8 18 10 29 16 SSW 1008,7 13 0,4
10.08.2018 04:00:00 21,5 20,5 18 10 47 25 S 1008,8 4,7 3,0
10.08.2018 03:00:00 22,6 20,9 32 18 50 27 SSW 1009,3 9 3,0

tt = Température de l'air
td = dewpoint
ff = Vitesse du vent
fx = gusts
dd = Direction du vent
ppp = reduced air pressure
vv = visibility
rr = Quantités de précipitations

stations d'obs. à proximité